Weather History for Annette Island, AK

Change the Weather History Date:

Monday, August 6, 2012

  Actual Average Record
Temperature  
Mean Temperature 62 °F 60 °F  
Max Temperature 70 °F 66 °F 77 °F (1980)
Min Temperature 54 °F 54 °F 48 °F (1966)
Degree Days  
Heating Degree Days 3    
Month to date heating degree days 46 30  
Since 1 June heating degree days 651 534  
Since 1 July heating degree days 287 236  
Cooling Degree Days 0    
Month to date cooling degree days 0  
Year to date cooling degree days 7  
Since 1 June cooling degree days 7  
Growing Degree Days 12 (Base 50)    
Moisture  
Dew Point 56 °F    
Average Humidity 0    
Maximum Humidity 0    
Minimum Humidity 0    
Precipitation  
Precipitation 0.00 in 0.18 in 2.87 in (1955)
Month to date precipitation 0.61 1.05  
Year to date precipitation 61.43 49.00  
Snow  
Snow 0.00 in 0.00 in 0.00 in (2013)
Month to date snowfall 0.0 0.0  
Since 1 June snowfall 0.0 0.0  
Snow Depth 0.00 in    
Sea Level Pressure  
Sea Level Pressure 30.07 in    
Wind  
Wind Speed 1 mph (NW)    
Max Wind Speed 8 mph    
Max Gust Speed 10 mph    
Visibility 10 miles    
Events Rain    
T = Trace of Precipitation, MM = Missing Value Source: NWS Daily Summary

Daily Weather History Graph

Daily Weather History Graph

Search for Another Location

Airport:

Trip Planner

Search our weather history database for the weather conditions in past years. The results will help you decide how hot, cold, wet, or windy it might be!

Date:

Astronomy

Aug. 06, 2012 Rise Set
Actual Time 5:05 AM AKDT 8:37 PM AKDT
Civil Twilight 4:20 AM AKDT 9:21 PM AKDT
Nautical Twilight 3:18 AM AKDT 10:23 PM AKDT
Astronomical Twilight 1:28 AM AKDT 12:05 AM AKDT
Moon 9:41 PM AKDT (8/6) 11:06 AM AKDT (8/6)
Length of Visible Light 17h 01m
Length of Day
15h 32m
Waning Gibbous, 77% of the Moon is Illuminated
Aug 6
Waning Gibbous
Aug 9
Last Quarter
Aug 17
New
Aug 24
First Quarter
Aug 31
Full

Hourly Weather History & Observations

Time (AKDT) Temp. Dew Point Humidity Pressure Visibility Wind Dir Wind Speed Gust Speed Precip Events Conditions
12:04 AM 53.6 °F 51.8 °F 94% 30.08 in 10.0 mi Calm Calm - N/A   Overcast
12:19 AM 53.6 °F 51.8 °F 94% 30.08 in 10.0 mi Calm Calm - N/A   Overcast
12:53 AM 54.0 °F 52.0 °F 93% 30.09 in 10.0 mi Calm Calm - N/A   Overcast
1:53 AM 54.0 °F 53.1 °F 97% 30.08 in 10.0 mi Calm Calm - N/A   Overcast
2:53 AM 54.0 °F 52.0 °F 93% 30.08 in 10.0 mi Calm Calm - N/A   Overcast
3:53 AM 54.0 °F 53.1 °F 97% 30.08 in 10.0 mi Calm Calm - N/A   Overcast
4:53 AM 54.0 °F 52.0 °F 93% 30.07 in 10.0 mi Calm Calm - N/A   Overcast
5:36 AM 53.6 °F 51.8 °F 94% 30.07 in 10.0 mi Calm Calm - N/A   Overcast
5:53 AM 54.0 °F 53.1 °F 97% 30.08 in 10.0 mi Calm Calm - N/A   Overcast
6:53 AM 57.0 °F 54.0 °F 89% 30.08 in 10.0 mi Calm Calm - N/A   Overcast
7:01 AM 57.2 °F 53.6 °F 88% 30.08 in 10.0 mi Calm Calm - N/A   Overcast
7:25 AM 59.0 °F 53.6 °F 82% 30.07 in 10.0 mi Calm Calm - N/A   Overcast
7:53 AM 60.1 °F 55.0 °F 83% 30.09 in 10.0 mi Calm Calm - N/A   Overcast
8:53 AM 59.0 °F 55.0 °F 87% 30.09 in 8.0 mi WNW 4.6 mph - N/A   Overcast
9:53 AM 60.1 °F 55.0 °F 83% 30.10 in 10.0 mi WNW 3.5 mph - N/A   Overcast
10:33 AM 64.4 °F 57.2 °F 77% 30.10 in 10.0 mi Calm Calm - N/A   Overcast
10:51 AM 64.4 °F 57.2 °F 77% 30.10 in 10.0 mi WNW 4.6 mph - N/A   Overcast
10:53 AM 66.0 °F 57.0 °F 73% 30.10 in 10.0 mi WNW 3.5 mph - N/A   Overcast
11:53 AM 66.0 °F 57.0 °F 73% 30.09 in 10.0 mi WNW 4.6 mph - N/A   Mostly Cloudy
12:53 PM 69.1 °F 59.0 °F 70% 30.09 in 10.0 mi WNW 5.8 mph - N/A   Mostly Cloudy
1:53 PM 68.0 °F 57.9 °F 70% 30.09 in 10.0 mi West 4.6 mph - N/A   Mostly Cloudy
2:53 PM 71.1 °F 59.0 °F 66% 30.09 in 10.0 mi NW 4.6 mph - N/A   Mostly Cloudy
3:53 PM 71.1 °F 57.9 °F 63% 30.07 in 10.0 mi Variable 3.5 mph - N/A   Mostly Cloudy
4:53 PM 71.1 °F 57.9 °F 63% 30.06 in 10.0 mi WNW 4.6 mph - N/A   Mostly Cloudy
5:53 PM 69.1 °F 57.9 °F 68% 30.06 in 10.0 mi NW 4.6 mph - N/A   Clear
6:53 PM 66.9 °F 59.0 °F 76% 30.05 in 10.0 mi Calm Calm - N/A   Clear
7:53 PM 64.9 °F 60.1 °F 84% 30.04 in 10.0 mi Calm Calm - N/A   Clear
8:53 PM 63.0 °F 57.9 °F 84% 30.04 in 10.0 mi Calm Calm - 0.00 in Rain Light Rain
9:53 PM 60.1 °F 57.0 °F 90% 30.04 in 10.0 mi Calm Calm - 0.00 in   Partly Cloudy
10:53 PM 57.9 °F 57.0 °F 97% 30.03 in 10.0 mi North 3.5 mph - N/A   Clear
11:53 PM 59.0 °F 57.0 °F 93% 30.02 in 10.0 mi NW 4.6 mph - N/A   Clear